This demonstration page uses our WeatherBlox Daily Observations layout. Learn more.

Left ArrowRight Arrow

38.89511, -77.03637

Hourly Observations for July 12, 2015

Temp ( °F °C ) Dew Point ( °F °C ) Humidity (%) Winds ( mph kmh ) Pressure ( in mb ) Visibility ( mi km ) Precip ( " mm )
12:52 am 00:52 Partly Cloudy 75 23.9 68 20 79 79 SW 3 6 30.07 1018 10 16 N/A
1:52 am 01:52 Partly Cloudy 75 23.9 68 20 79 79 WSW 3 6 30.07 1018 10 16 N/A
2:52 am 02:52 Partly Cloudy 75 23.9 68 20 79 79 N N/A 30.06 1018 10 16 N/A
3:52 am 03:52 Partly Cloudy 74 23.3 66 18.9 76 76 N N/A 30.06 1018 10 16 N/A
4:52 am 04:52 Mostly Cloudy 71 21.7 65 18.3 81 81 N 5 7 30.06 1018 10 16 N/A
5:52 am 05:52 Partly Cloudy 71 21.7 62 16.7 73 73 NNW 6 9 30.07 1018 10 16 N/A
6:52 am 06:52 Partly Cloudy 71 21.7 63 17.2 76 76 NNW 6 9 30.07 1018 10 16 N/A
7:52 am 07:52 Partly Cloudy 75 23.9 64 17.8 69 69 N 3 6 30.08 1019 10 16 N/A
8:52 am 08:52 Mostly Cloudy 79 26.1 64 17.8 60 60 N 3 6 30.09 1019 10 16 N/A
9:52 am 09:52 Cloudy 81 27.2 64 17.8 57 57 W 3 6 30.08 1019 10 16 N/A
10:52 am 10:52 Cloudy 84 28.9 63 17.2 49 49 NE 7 11 30.06 1018 10 16 N/A
11:52 am 11:52 Cloudy 87 30.6 59 15 39 39 N N/A 30.05 1018 10 16 N/A
12:52 pm 12:52 Cloudy 86 30 58 14.4 39 39 N N/A 30.05 1018 10 16 N/A
1:52 pm 13:52 Cloudy 87 30.6 61 16.1 42 42 S 6 9 30.04 1017 10 16 N/A
2:52 pm 14:52 Mostly Cloudy 86 30 62 16.7 45 45 S 7 11 30.02 1017 10 16 N/A
3:52 pm 15:52 Mostly Cloudy 87 30.6 63 17.2 45 45 SSW 7 11 30.00 1016 10 16 N/A
4:52 pm 16:52 Mostly Cloudy 86 30 63 17.2 46 46 S 7 11 29.98 1015 10 16 N/A
5:52 pm 17:52 Mostly Cloudy 84 28.9 63 17.2 49 49 S 6 9 29.98 1015 10 16 N/A
6:52 pm 18:52 Cloudy 83 28.3 62 16.7 49 49 S 6 9 29.97 1015 10 16 N/A
7:52 pm 19:52 Cloudy 83 28.3 63 17.2 51 51 S 6 9 29.96 1015 10 16 N/A
8:52 pm 20:52 Mostly Cloudy 81 27.2 62 16.7 53 53 SSW 6 9 29.96 1015 10 16 N/A
9:52 pm 21:52 Cloudy 80 26.7 66 18.9 62 62 S 3 6 29.98 1015 10 16 N/A
10:52 pm 22:52 Cloudy 80 26.7 64 17.8 58 58 SSE 6 9 29.98 1015 10 16 N/A
11:52 pm 23:52 Cloudy 79 26.1 66 18.9 65 65 S 6 9 29.97 1015 10 16 N/A

Powered by AerisWeather